Home   Weather   Cambridge   Past weeks

Flag for United Kingdom Past Weather in Cambridge, England, United Kingdom — Yesterday and Last 2 Weeks

Now
47 °F

Scattered clouds.


Feels Like: 40 °F
Forecast: 47 / 58 °F
Wind: 17 mph from East

Location: Mildenhall Royal Air Force Base

Current Time: Apr 30, 2017 at 8:17:00 am

Latest Report: Apr 30, 2017 at 6:58 am


Visibility: N/A

Pressure: 29.75 "Hg

Humidity: 100%

Dew Point: 47 °F

Location of CambridgeLocation

Past Weather in Cambridge — Graph

°F

Cambridge Temperature Yesterday

Maximum temperature yesterday: 58 °F (at 1:58 pm)
Minimum temperature yesterday: 46 °F (at 3:58 am)
Average temperature yesterday: 52 °F

High & Low Weather Summary for the Past Weeks

 TemperatureHumidityPressure
High63 °F (Apr 19, 1:58 pm)100% (Apr 15, 6:03 am)30.64 "Hg (Apr 15, 6:03 am)
Low29 °F (Apr 27, 5:58 am)27% (Apr 19, 1:58 pm)29.75 "Hg (Apr 30, 6:58 am)
Average47 °F84%30.18 "Hg
* Reported Apr 15 6:03 am — Apr 30 6:58 am, Cambridge, Weather by CustomWeather, © 2017

Note: Actual official high and low records may vary slightly from our data, if they occured in-between our weather recording intervals... More about our weather records

Advertising

Cambridge Weather History for the Previous 24 Hours

Scroll right to see more
 ConditionsComfort  
Time TempWeatherWind HumidityBarometerVisibility
6:58 am
Sun, Apr 30
47 °FScattered clouds.17 mph100%29.75 "HgN/A
5:58 am46 °FSunny.16 mph100%29.77 "HgN/A
4:58 am46 °FClear.14 mph100%29.79 "HgN/A
3:58 am46 °FClear.15 mph100%29.81 "HgN/A
2:58 am48 °FClear.14 mph93%29.83 "HgN/A
1:58 am50 °FPassing clouds.13 mph88%29.85 "HgN/A
12:58 am48 °FPassing clouds.13 mph100%29.87 "HgN/A
11:58 pm
Sat, Apr 29
47 °FPassing clouds.14 mph100%29.88 "HgN/A
10:58 pm47 °FClear.14 mph100%29.90 "HgN/A
9:58 pm48 °FClear.13 mph100%29.90 "HgN/A
8:58 pm50 °FClear.12 mph95%29.91 "HgN/A
7:58 pm53 °FSunny.12 mph71%29.90 "HgN/A
6:58 pm55 °FScattered clouds.10 mph67%29.90 "HgN/A
5:58 pm57 °FOvercast.14 mph58%29.91 "HgN/A
4:58 pm58 °FOvercast.10 mph61%29.92 "HgN/A
3:58 pm57 °FPartly sunny.10 mph56%29.94 "HgN/A
2:58 pm58 °FPartly sunny.9 mph53%29.96 "HgN/A
1:58 pm58 °FBroken clouds.6 mph50%29.97 "HgN/A
12:58 pm58 °FPartly sunny.8 mph55%29.98 "HgN/A
11:58 am55 °FScattered clouds.8 mph55%29.99 "HgN/A
11:43 am55 °FBroken clouds.7 mph55%29.98 "HgN/A
11:13 am55 °FPartly sunny.6 mph59%29.99 "HgN/A
10:58 am56 °FMostly cloudy.8 mph57%30.00 "HgN/A
9:58 am54 °FSunny.7 mph65%30.00 "HgN/A
8:58 am51 °FSunny.6 mph84%30.00 "HgN/A
Weather by CustomWeather, © 2017

See weather overviewHow to use our weather pages